Location: ????????
(56.1167°N, 38.6333°E)
Time: 12:24:26
(UTC+00:00)

ISS - Pass Details

Date: 18 November 2025
Orbit: 416 x 420 km, 51.6° (Epoch: 09 December)

Event Time Altitude Azimuth Distance (km) Brightness Sun altitude
Rises 16:26:16 0° 251° (WSW) 2,367 1.1 -26.5°
Reaches altitude 10° 16:28:27 10° 243° (WSW) 1,502 -0.2 -26.8°
Enters shadow 16:29:31 18° 234° (SW) 1,113 -1.1 -26.9°
